[[{"header":{"parameterUnit":"m.s-1","parameterCategory":1,"la1":30.2991,"la2":30.254,"lo1":-89.0895,"lo2":-89.0444,"dy":0.0017,"dx":0.0017,"nx":28,"ny":28,"refTime":"2024-08-09T03:00:00:Z","depth":0,"parameterNumber":2,"parameterNumberName":"U-component_of_WINDS"},"data":[0,0,0,0,0,0,0,0,0,0,0,0,0,0,0,0,0,0,0,0,0,0,0,0,0,0,0,0,0,0,0,0,0,0,0,0,0,0,0,0,0,0,0,0,0,0,0,0,0,0,0,0,0,0,0,0,0,0,-1.9069,-1.907,0,-1.9144,-1.9145,-1.9146,-1.9052,-1.9048,-1.9045,-1.9042,-1.912,-1.9126,-1.9131,0,0,0,0,0,0,0,0,0,0,0,0,0,-1.8845,-1.885,-1.9069,-1.907,-1.9071,-1.9144,-1.9145,-1.9146,-1.9052,-1.9048,-1.9044,-1.904,-1.9119,-1.9125,-1.9131,0,0,0,0,0,0,0,0,0,0,0,0,0,-1.8934,-1.8851,-1.9069,-1.9033,-1.903,-1.9144,-1.9145,-1.9146,-1.9053,-1.9048,-1.9043,-1.9038,-1.9117,-1.9124,-1.9132,-1.9285,0,0,-1.9157,-1.916,0,0,0,0,0,0,0,0,-1.8929,-1.8942,-1.9037,-1.9035,-1.9033,-1.9083,-1.9095,-1.9193,-1.9055,-1.9045,-1.9042,-1.9036,-1.9112,-1.912,-1.9146,-1.9289,-1.9292,-1.9157,-1.9162,-1.9165,-1.9168,0,0,0,0,0,0,0,-1.8923,-1.8938,-1.9099,-1.9039,-1.9036,-1.9013,-1.902,-1.9113,-1.9107,-1.9045,-1.9038,-1.9049,-1.911,-1.9138,-1.9147,-1.9293,-1.9157,-1.9164,-1.9169,-1.9172,-1.9566,-1.9572,0,0,0,0,0,0,-1.8921,-1.8934,-1.9096,-1.9101,-1.8967,-1.9022,-1.9029,-1.9072,-1.9105,-1.9105,-1.9053,-1.9044,-1.9127,-1.9138,-1.9149,-1.9332,-1.9165,-1.9173,-1.9177,-1.9561,-1.9567,-1.9574,0,0,0,0,0,0,-1.8916,-1.8936,-1.9093,-1.9016,-1.9034,-1.9031,-1.908,-1.9077,-1.9105,-1.9111,-1.911,-1.9083,-1.9124,-1.9138,-1.9252,-1.9333,-1.9176,-1.9184,-1.9554,-1.9563,-1.9571,-1.9697,0,0,0,0,0,0,-1.891,-1.8935,-1.8993,-1.9017,-1.9038,-1.9195,-1.9085,-1.9082,-1.9119,-1.9107,-1.9139,-1.9139,-1.9121,-1.9241,-1.926,-1.9341,-1.919,-1.9547,-1.9558,-1.9568,-1.9686,-1.9709,-1.9729,0,0,0,0,0,-1.8902,-1.9025,-1.8996,-1.9016,-1.911,-1.92,-1.9211,-1.9187,-1.9125,-1.9184,-1.9188,-1.9138,-1.9321,-1.9253,-1.9274,-1.9359,-1.9541,-1.9555,-1.9567,-1.9676,-1.9704,-1.9728,0,0,0,0,0,0,-1.9011,-1.9028,-1.8996,-1.913,-1.9164,-1.9183,-1.9256,-1.9218,-1.927,-1.9258,-1.9225,-1.9233,-1.9355,-1.9368,-1.9293,-1.9509,-1.9421,-1.9439,-1.9497,-1.9524,-1.9545,-1.954,-1.9197,0,0,0,0,0,-1.905,-1.9121,-1.9132,-1.925,-1.9268,-1.926,-1.9298,-1.9276,-1.931,-1.9324,-1.9336,-1.9372,-1.9437,-1.948,-1.9541,-1.9686,-1.9693,-1.9755,-1.9776,-1.9794,-1.981,-1.989,-1.9918,-1.9616,-1.9616,-1.9615,0,0,-1.9133,-1.9151,-1.9197,-1.9272,-1.9296,-1.937,-1.9272,-1.9355,-1.941,-1.9336,-1.9445,-1.9456,-1.9493,-1.9624,-1.9682,-1.9638,-1.9895,-1.981,-1.9824,-1.9831,-1.9906,-1.9934,-1.996,-1.9624,-1.9623,-1.9621,0,0,-1.9322,-1.9342,-1.9443,-1.9468,-1.9505,-1.9499,-1.9523,-1.9548,-1.9552,-1.9661,-1.9607,-1.9672,-1.9785,-1.9814,-1.9843,-2.0043,-2.0,-2.0064,-2.0177,-2.0254,-2.0278,-2.0299,-2.0372,-2.0399,-2.0079,-2.008,-2.008,0,-1.942,-1.9529,-1.9499,-1.9586,-1.9621,-1.9557,-1.966,-1.9686,-1.9741,-1.9767,-1.9716,-1.9857,-1.9877,-2.0015,-2.0064,-2.0089,-2.0117,-2.0061,-2.0277,-2.0298,-2.0317,-2.0386,-2.0414,-2.0087,-2.0086,-2.0086,-2.0085,0,-1.9649,-1.9726,-1.9803,-1.9858,-1.9901,-1.9996,-1.998,-2.0028,-2.0002,-2.0001,-2.0113,-2.0135,-2.0199,-2.0229,-2.0205,-2.0364,-2.0336,-2.0282,-2.0193,-2.0354,-2.0419,-2.0445,-2.0098,-2.0095,-2.0093,-2.0091,0,0,-1.991,-1.9946,-1.9976,-2.0,-2.0036,-2.0095,-2.0186,-2.0249,-2.0291,-2.0331,-2.0407,-2.0504,-2.0455,-2.0488,-2.0466,-2.0534,-2.0693,-2.0472,-2.0473,-2.0514,-2.0871,-2.0913,-2.0944,-2.0664,-2.0669,-2.0672,-2.0868,0,-2.01,-2.0259,-2.0234,-2.0388,-2.0459,-2.0399,-2.0479,-2.051,-2.0511,-2.0572,-2.0573,-2.0643,-2.0571,-2.0592,-2.0656,-2.066,-2.0765,-2.0645,-2.0736,-2.074,-2.0731,-2.0977,-2.1022,-2.1206,-2.0893,-2.0898,-2.0901,0,-2.0344,-2.0393,-2.0554,-2.0579,-2.0608,-2.068,-2.0736,-2.0794,-2.0828,-2.0824,-2.0862,-2.0828,-2.092,-2.0828,-2.0955,-2.0875,-2.091,-2.0918,-2.0924,-2.0933,-2.0832,-2.0995,-2.1264,-2.1292,-2.094,-2.0937,-2.0934,0,-2.052,-2.0626,-2.0736,-2.0759,-2.079,-2.0843,-2.0859,-2.0887,-2.0927,-2.0975,-2.1,-2.1059,-2.1092,-2.1138,-2.1121,-2.1055,-2.1252,-2.1158,-2.1252,-2.1253,-2.1298,-2.1296,-2.1578,-2.1318,-2.1318,-2.1317,-2.1316,0,-2.0737,-2.0838,-2.0816,-2.0884,-2.0996,-2.0966,-2.1078,-2.1086,-2.1112,-2.1181,-2.1132,-2.1198,-2.117,-2.1234,-2.1221,-2.1329,-2.1344,-2.1344,-2.134,-2.135,-2.135,-2.1374,-2.1361,-2.1324,-2.1323,-2.1321,-2.132,0,-2.0954,-2.0943,-2.1059,-2.1079,-2.1087,-2.1169,-2.1186,-2.125,-2.1247,-2.1335,-2.1354,-2.135,-2.1423,-2.141,-2.149,-2.1481,-2.1617,-2.1596,-2.1606,-2.1602,-2.1697,-2.1689,-2.2006,-2.2047,-2.1759,-2.1762,-2.1764,0,-2.1094,-2.117,-2.1199,-2.1241,-2.1261,-2.133,-2.137,-2.1344,-2.1387,-2.1432,-2.1491,-2.1559,-2.1613,-2.1732,-2.1737,-2.1798,-2.1779,-2.1886,-2.1788,-2.1796,-2.1783,-2.1779,-2.1787,-2.1906,-2.1909,-2.1912,-2.1914,0,-2.1344,-2.1334,-2.1394,-2.1452,-2.15,-2.1545,-2.1584,-2.1622,-2.1599,-2.1651,-2.1725,-2.1766,-2.1848,-2.1917,-2.1975,-2.1991,-2.195,-2.1945,-2.197,-2.1982,-2.1985,-2.1987,-2.1661,-2.1938,-2.1936,-2.1934,-2.1933,-2.1932,-2.1527,-2.1593,-2.1624,-2.1691,-2.1718,-2.1756,-2.1818,-2.1822,-2.1884,-2.1949,-2.1929,-2.2014,-2.2046,-2.2118,-2.2141,-2.2207,-2.2167,-2.2204,-2.2213,-2.2223,-2.2235,-2.1973,-2.2217,-2.2216,-2.2215,-2.2215,-2.2214,0,-2.1776,-2.1793,-2.1856,-2.1913,-2.1966,-2.1921,-2.1963,-2.2011,-2.2086,-2.2119,-2.2173,-2.2258,-2.2325,-2.2334,-2.2397,-2.2448,-2.2431,-2.2466,-2.2463,-2.2467,-2.2266,-2.2239,-2.2479,-2.2479,-2.2479,-2.2479,-2.2478,-2.2478,-2.1913,-2.2022,-2.2016,-2.2138,-2.2154,-2.2236,-2.2264,-2.2299,-2.2325,-2.2423,-2.2478,-2.2483,-2.2507,-2.2572,-2.2631,-2.2632,-2.2658,-2.2701,-2.2695,-2.2508,-2.2481,-2.2456,-2.243,-2.2706,-2.2707,-2.2891,-2.2892,-2.2894]},{"header":{"parameterUnit":"m.s-1","parameterCategory":1,"la1":30.2991,"la2":30.254,"lo1":-89.0895,"lo2":-89.0444,"dy":0.0017,"dx":0.0017,"nx":28,"ny":28,"refTime":"2024-08-09T03:00:00:Z","depth":0,"parameterNumber":3,"parameterNumberName":"V-component_of_WINDS"},"data":[0,0,0,0,0,0,0,0,0,0,0,0,0,0,0,0,0,0,0,0,0,0,0,0,0,0,0,0,0,0,0,0,0,0,0,0,0,0,0,0,0,0,0,0,0,0,0,0,0,0,0,0,0,0,0,0,0,0,-3.4444,-3.4444,0,-3.4409,-3.4408,-3.4408,-3.4314,-3.4312,-3.431,-3.4308,-3.4272,-3.4272,-3.4273,0,0,0,0,0,0,0,0,0,0,0,0,0,-3.4429,-3.4429,-3.4444,-3.4444,-3.4443,-3.4409,-3.4408,-3.4408,-3.4314,-3.4312,-3.4309,-3.4307,-3.4271,-3.4272,-3.4273,0,0,0,0,0,0,0,0,0,0,0,0,0,-3.4419,-3.443,-3.4444,-3.4392,-3.4387,-3.4409,-3.4408,-3.4408,-3.4315,-3.4312,-3.4309,-3.4306,-3.4271,-3.4272,-3.4274,-3.4343,0,0,-3.4278,-3.4278,0,0,0,0,0,0,0,0,-3.4419,-3.4419,-3.44,-3.4396,-3.439,-3.4363,-3.439,-3.4386,-3.4315,-3.4342,-3.4308,-3.4304,-3.4304,-3.4303,-3.4303,-3.4341,-3.434,-3.4278,-3.4279,-3.4279,-3.428,0,0,0,0,0,0,0,-3.442,-3.442,-3.443,-3.44,-3.4394,-3.437,-3.4365,-3.4388,-3.4341,-3.434,-3.4333,-3.433,-3.4301,-3.4302,-3.4301,-3.4339,-3.4278,-3.4279,-3.428,-3.4281,-3.4429,-3.4432,0,0,0,0,0,0,-3.4428,-3.4422,-3.4431,-3.4429,-3.4398,-3.4373,-3.4368,-3.4375,-3.434,-3.4332,-3.4332,-3.4326,-3.4301,-3.43,-3.43,-3.4376,-3.4279,-3.4281,-3.4281,-3.4426,-3.443,-3.4433,0,0,0,0,0,0,-3.4429,-3.443,-3.4433,-3.4423,-3.4422,-3.4376,-3.4385,-3.4376,-3.4376,-3.4335,-3.4326,-3.4342,-3.4298,-3.4298,-3.4332,-3.4374,-3.4281,-3.4283,-3.4422,-3.4427,-3.4432,-3.4532,0,0,0,0,0,0,-3.4428,-3.4431,-3.4457,-3.4425,-3.4423,-3.4467,-3.4388,-3.4377,-3.4379,-3.4369,-3.4341,-3.4334,-3.4296,-3.4331,-3.4333,-3.4374,-3.4284,-3.4418,-3.4425,-3.443,-3.4524,-3.4539,-3.4552,0,0,0,0,0,-3.4428,-3.4488,-3.4459,-3.4461,-3.4455,-3.4469,-3.4468,-3.4424,-3.4383,-3.4408,-3.4381,-3.4335,-3.4369,-3.4335,-3.4337,-3.4379,-3.4416,-3.4423,-3.443,-3.4518,-3.4536,-3.4552,0,0,0,0,0,0,-3.4527,-3.4482,-3.445,-3.4501,-3.449,-3.4454,-3.4485,-3.4444,-3.4445,-3.4436,-3.438,-3.4375,-3.4416,-3.4401,-3.4364,-3.4443,-3.4384,-3.4392,-3.4451,-3.4468,-3.4481,-3.4484,-3.4285,0,0,0,0,0,-3.4554,-3.457,-3.453,-3.4579,-3.4575,-3.4531,-3.4536,-3.4502,-3.4488,-3.4483,-3.4458,-3.4446,-3.4453,-3.446,-3.4465,-3.4522,-3.4513,-3.4551,-3.4565,-3.4577,-3.4584,-3.461,-3.4626,-3.4456,-3.4456,-3.4456,0,0,-3.4612,-3.4589,-3.4603,-3.4598,-3.4585,-3.4602,-3.4528,-3.4549,-3.456,-3.4486,-3.4516,-3.4498,-3.448,-3.4526,-3.4545,-3.4514,-3.4629,-3.4586,-3.4595,-3.4596,-3.4619,-3.4635,-3.4649,-3.4461,-3.446,-3.4459,0,0,-3.4724,-3.471,-3.4747,-3.4736,-3.4717,-3.4687,-3.4696,-3.4665,-3.465,-3.468,-3.4623,-3.4636,-3.4651,-3.464,-3.4637,-3.4743,-3.4699,-3.4746,-3.4817,-3.4844,-3.4857,-3.4868,-3.4904,-3.4918,-3.4753,-3.4754,-3.4754,0,-3.4798,-3.4821,-3.4772,-3.4796,-3.4795,-3.4727,-3.4764,-3.4755,-3.4739,-3.4739,-3.4706,-3.4721,-3.4705,-3.4746,-3.4771,-3.4772,-3.4779,-3.4749,-3.4859,-3.487,-3.488,-3.4914,-3.4927,-3.4759,-3.4759,-3.4758,-3.4757,0,-3.4911,-3.4928,-3.4961,-3.4946,-3.4948,-3.4979,-3.4934,-3.4942,-3.4907,-3.4881,-3.491,-3.4888,-3.4886,-3.4894,-3.4861,-3.4929,-3.4911,-3.4869,-3.4809,-3.4903,-3.4933,-3.4946,-3.4767,-3.4765,-3.4764,-3.4762,0,0,-3.5086,-3.5042,-3.5055,-3.5046,-3.502,-3.5031,-3.5058,-3.5056,-3.5063,-3.5054,-3.5073,-3.5087,-3.5047,-3.5043,-3.5008,-3.5032,-3.5114,-3.4986,-3.4985,-3.501,-3.5185,-3.5216,-3.5232,-3.5085,-3.5088,-3.509,-3.5186,0,-3.5191,-3.5234,-3.519,-3.5242,-3.5255,-3.519,-3.5213,-3.5199,-3.5174,-3.5181,-3.5154,-3.5163,-3.5111,-3.5108,-3.5128,-3.51,-3.5149,-3.5093,-3.5102,-3.5103,-3.5107,-3.5248,-3.5281,-3.5373,-3.5198,-3.52,-3.5201,0,-3.532,-3.5315,-3.5368,-3.5336,-3.534,-3.5361,-3.5354,-3.5363,-3.5344,-3.5324,-3.5319,-3.5276,-3.5298,-3.5241,-3.527,-3.5233,-3.5234,-3.522,-3.5222,-3.5221,-3.5157,-3.5249,-3.5402,-3.5415,-3.522,-3.5219,-3.5217,0,-3.544,-3.5447,-3.5479,-3.5474,-3.5437,-3.5453,-3.5439,-3.5417,-3.5418,-3.5412,-3.5411,-3.5408,-3.5406,-3.5404,-3.536,-3.5323,-3.5394,-3.5333,-3.5377,-3.5378,-3.5394,-3.5394,-3.5549,-3.5398,-3.5397,-3.5397,-3.5397,0,-3.5561,-3.5596,-3.5532,-3.5552,-3.5588,-3.5536,-3.5573,-3.5551,-3.5532,-3.5546,-3.5489,-3.5503,-3.5446,-3.5453,-3.5419,-3.5447,-3.5447,-3.5431,-3.5421,-3.5435,-3.5437,-3.5434,-3.5426,-3.5401,-3.54,-3.5399,-3.5399,0,-3.5701,-3.566,-3.569,-3.5653,-3.5644,-3.5672,-3.5639,-3.5655,-3.5626,-3.5643,-3.5644,-3.5599,-3.5604,-3.556,-3.5558,-3.5535,-3.5578,-3.5558,-3.5584,-3.5578,-3.5623,-3.5619,-3.578,-3.5798,-3.5638,-3.5639,-3.5641,0,-3.5781,-3.5806,-3.577,-3.5774,-3.5762,-3.5771,-3.5771,-3.572,-3.5722,-3.5701,-3.5719,-3.5719,-3.5717,-3.5728,-3.5694,-3.5691,-3.567,-3.5726,-3.5669,-3.5681,-3.5668,-3.5667,-3.5668,-3.5738,-3.574,-3.5742,-3.5743,0,-3.5926,-3.5904,-3.5905,-3.59,-3.5901,-3.5894,-3.5884,-3.5891,-3.5835,-3.584,-3.5844,-3.5842,-3.5838,-3.5838,-3.5828,-3.5812,-3.5768,-3.5762,-3.5771,-3.5785,-3.5798,-3.579,-3.5616,-3.5758,-3.5757,-3.5756,-3.5755,-3.5754,-3.6037,-3.6055,-3.6032,-3.6035,-3.6021,-3.6012,-3.6024,-3.5996,-3.5999,-3.5991,-3.5961,-3.597,-3.5948,-3.593,-3.5917,-3.5923,-3.5895,-3.591,-3.5913,-3.5917,-3.5924,-3.5799,-3.5921,-3.5921,-3.592,-3.592,-3.592,0,-3.6177,-3.6159,-3.6162,-3.6148,-3.615,-3.6108,-3.6094,-3.6098,-3.6107,-3.609,-3.6088,-3.6092,-3.6091,-3.6057,-3.6052,-3.6062,-3.6042,-3.6063,-3.6061,-3.6057,-3.5951,-3.5942,-3.6079,-3.6079,-3.6079,-3.6079,-3.6079,-3.6079,-3.6251,-3.6278,-3.6253,-3.6272,-3.6253,-3.6261,-3.6256,-3.6247,-3.6233,-3.6239,-3.6238,-3.6215,-3.6191,-3.6183,-3.618,-3.6169,-3.6169,-3.6197,-3.618,-3.6081,-3.6065,-3.605,-3.6042,-3.6198,-3.6198,-3.6285,-3.6286,-3.6287]}]]